User: anonymous   Login
Location: Abraham Lincoln Continuation High School
(33.9711°N, 117.3662°W)
Time: 03:04:02
(UTC+00:00)
Language:

CZ-2C R/B - Orbit

View from above orbital plane
View from above orbital plane
View from above satellite
View from above satellite

Ground track
Ground track

The orbit data is extracted from the following two-line orbital elements,

1 28480U 04046B   20339.31227082  .00000028  00000-0  25208-4 0  9999
2 28480  98.0626   0.9539 0143093  82.1443 290.0963 14.25735830834645
Epoch (UTC): 04 December 2020 07:29:40
Eccentricity: 0.0143093
inclination: 98.0626°
perigee height: 703 km
apogee height: 909 km
right ascension of ascending node: 0.9539°
argument of perigee: 82.1443°
revolutions per day: 14.25735830
mean anomaly at epoch: 290.0963°
orbit number at epoch: 83464

The dashed part of the orbit path shows where the satellite is in the earth's shadow,  

DLR